#timestamp,LO_Frequency,Hit,StdDev 
1621044015.7,286046996.7,N
1621044035.6,286046997.2,N
1621044055.4,286046996.7,N
1621044075.2,286046997.3,N
1621044095.1,286047002.5,N
1621044096.0,286047002.5,N
1621044115.8,286047003.0,N
1621044135.7,286047003.7,N
1621044155.5,286047002.5,N
1621044175.3,286047003.9,N
1621044195.2,286047005.8,N
1621044215.0,286047001.9,N
1621044215.9,286047001.9,N
1621044235.7,286047001.7,N
1621044255.6,286046999.9,N
1621044275.4,286047002.7,N
1621044295.3,286047002.1,N
1621044315.1,286047002.4,N
1621044316.0,286047002.4,N
1621044335.8,286047002.4,N
1621044355.7,286047000.6,N
1621044375.5,286047001.9,N
1621044395.3,286047000.0,N
1621044415.2,286046999.9,N
1621044465.1,286047003.8,E
1621044475.9,286047000.0,N
1621044495.7,286046999.6,P
1621044515.6,286046997.7,P
1621044535.4,286046995.2,Y
1621044555.2,286046995.1,P
1621044575.1,286046999.4,N
1621044576.0,286046999.4,N
1621044595.8,286047002.0,N
1621044615.6,286047003.6,N
1621044635.5,286046999.8,N
1621044655.3,286047000.0,N
1621044675.2,286046999.3,N
1621044695.0,286046998.8,N
1621044695.9,286046998.8,N
1621044715.8,286046999.4,N
1621044735.6,286046998.2,N
1621044755.4,286046999.9,N
1621044775.3,286046998.6,N
1621044795.1,286047000.7,N
1621044815.8,286046998.1,N
1621044835.7,286046999.1,N
1621044855.5,286046997.8,N
1621044875.4,286046996.7,N
1621044895.2,286046996.7,N
1621044915.0,286046996.5,N
1621044915.9,286046996.5,N
1621044935.8,286046997.1,N
1621044955.6,286046997.3,N
1621044975.4,286046997.0,N
1621044995.3,286046998.8,N
1621045015.1,286046998.3,N
1621045035.9,286046994.9,N
1621045055.7,286046993.3,Y
1621045075.5,286046996.8,P
1621045095.4,286046999.0,N
1621045115.2,286047000.9,N
1621045135.0,286047001.2,N
1621045136.0,286047001.2,N
1621045155.8,286047001.1,N
1621045175.6,286046999.9,N
1621045195.5,286047003.6,N
1621045215.3,286047004.2,N
1621045235.1,286047004.0,N
1621045255.9,286046999.8,N
1621045275.7,286047004.4,N
1621045295.5,286047002.0,N
1621045315.4,286047001.5,N
1621045335.2,286047003.9,N
1621045355.1,286047002.3,N
1621045356.0,286047002.3,N
1621045375.8,286047002.1,N
1621045395.6,286046998.3,N
1621045415.5,286047000.2,N
1621045435.3,286046999.9,N
1621045455.1,286047000.4,N
1621045475.9,286047001.0,N
1621045495.7,286047000.1,N
1621045515.6,286047002.8,N
1621045535.4,286047001.1,N
1621045555.2,286046998.6,N
1621045575.1,286047000.9,N
1621045576.0,286047000.9,N
1621045595.8,286046999.0,N
1621045615.7,286046999.3,N
1621045635.5,286046996.7,N
1621045655.3,286046997.4,N
1621045675.2,286046996.7,N
1621045695.9,286046999.8,N
1621045715.7,286047000.5,N
1621045735.6,286046999.3,N
1621045755.4,286046996.7,N
1621045775.2,286046997.2,N
1621045795.1,286046999.2,N
1621045796.0,286046999.2,N
1621045815.8,286047000.7,N
1621045835.7,286047000.1,N
1621045855.5,286047001.6,N
1621045875.3,286047001.0,N
1621045895.2,286047002.7,N
1621045915.0,286047002.1,N
1621045915.9,286047002.1,N
1621045935.8,286047003.0,N
1621045955.6,286047004.8,N
1621045975.4,286047003.4,N
1621045995.3,286047004.2,N
1621046015.1,286047002.2,N
1621046035.8,286047004.2,N
1621046055.7,286047001.6,N
1621046075.5,286047002.2,N
1621046095.4,286047002.1,N
1621046115.2,286047003.7,N
1621046135.0,286047001.7,N
1621046135.9,286047001.7,N
1621046155.8,286047002.0,N
1621046175.6,286047000.6,N
1621046195.5,286047002.7,N
1621046215.3,286047001.6,N
1621046235.1,286047002.2,N
1621046255.9,286047004.4,N
1621046275.7,286047001.8,N
1621046295.6,286047000.6,N
1621046315.4,286047001.0,N
1621046335.2,286047002.7,N
1621046355.1,286047004.3,Y
1621046356.0,286047004.3,P
1621046375.8,286046999.2,N
1621046395.7,286046999.2,N
1621046415.5,286046996.9,N
1621046435.3,286046997.5,N
1621046455.2,286046993.4,N
1621046475.0,286046993.4,N
1621046475.9,286046993.4,N
1621046495.7,286046994.3,N
1621046515.6,286046991.7,N
1621046535.4,286046993.1,N
1621046555.3,286046991.4,N
1621046575.1,286046990.4,N
1621046595.8,286046990.4,N
1621046615.7,286046993.0,N
1621046635.5,286046990.3,N
1621046655.4,286046992.5,N
1621046675.2,286046995.5,N
1621046695.0,286046994.2,N
1621046695.9,286046994.2,N
1621046715.8,286046994.4,N
1621046735.6,286046994.2,N
1621046755.4,286046996.0,N
1621046775.3,286046994.1,N
1621046795.1,286046994.8,N
1621046815.9,286046992.1,N
1621046835.7,286046991.9,N
1621046855.5,286046994.0,N
1621046875.4,286046994.1,N
1621046895.2,286046995.6,N
1621046915.0,286046993.6,N
1621046915.9,286046993.6,N
1621046935.8,286046993.5,Y
1621046955.6,286046998.1,P
1621046975.5,286046999.4,N
1621046995.3,286046999.2,N
1621047015.1,286046997.5,N
1621047035.9,286046996.9,N
1621047055.7,286046999.2,N
1621047075.5,286047001.2,N
1621047095.4,286047000.0,N
1621047115.2,286047002.4,N
1621047135.1,286047002.2,N
1621047136.0,286047002.2,N
1621047155.8,286047002.4,N
1621047175.6,286047001.0,N
1621047195.5,286046998.9,N
1621047215.3,286046999.4,N
1621047235.2,286046997.0,N
1621047255.9,286046999.2,N
1621047275.7,286047000.3,N
1621047295.6,286046998.8,N
1621047315.4,286047000.9,N
1621047335.3,286046996.5,N
1621047355.1,286047001.2,N
1621047356.0,286047001.2,N
1621047375.8,286047000.5,N
1621047395.7,286047000.8,N
1621047415.5,286046998.6,N
1621047435.3,286046998.7,N
1621047455.2,286046999.4,N
1621047475.0,286046999.9,N
1621047475.9,286046999.9,N
1621047495.8,286047002.5,N
1621047515.6,286046999.7,N
1621047535.4,286047001.3,N
1621047555.3,286047001.5,N
1621047575.1,286047001.3,N
1621047595.8,286047002.2,N
